Vorticity
8 8 4 4 5 7 7 7 6 7 8 8 8 7 7 7 8 8 8 7 7 7 6 8 9 12 12 11 18 16 18 18 30 27 24 27 22 20 -31 20 -1 14 13
9 3 2 7 7 7 7 7 8 8 8 8 7 6 6 7 8 7 7 7 7 6 5 7 7 10 10 9 15 19 18 21 16 12 17 28 24 25 -12 -64 41 10 23
6 4 7 7 6 4 4 5 9 10 8 7 6 6 6 7 7 7 8 7 7 6 6 5 5 9 8 10 15 16 15 27 22 19 15 20 31 20 -1 16 -9 -11 14
7 6 6 5 4 5 7 6 11 11 8 7 7 8 7 6 6 7 8 7 7 7 7 5 4 4 7 9 10 14 11 18 21 14 15 16 1 9 18 13 22 8 5
6 5 4 3 2 5 10 12 14 13 8 5 11 11 10 9 8 8 7 7 8 7 8 7 6 6 6 8 11 11 11 10 12 16 13 13 11 2 -3 1 4 -3 5
4 4 1 3 9 11 15 13 15 10 7 8 6 7 7 8 10 10 9 7 7 7 7 7 7 7 7 8 10 11 10 7 11 18 11 9 9 18 10 12 6 10 11
6 2 1 1 19 15 10 11 12 9 6 4 4 4 4 6 6 8 12 9 7 7 7 7 8 7 8 7 9 9 10 11 9 1 17 7 11 9 10 17 12 12 16
4 2 -3 -1 16 18 13 13 10 8 5 4 5 7 6 4 4 8 8 10 10 7 7 7 6 8 7 8 7 9 8 9 11 16 5 -1 -2 10 7 7 7 4 10
2 -1 -6 1 12 13 12 10 8 8 7 6 5 3 4 5 5 4 6 9 10 9 7 6 8 8 8 8 8 7 5 3 5 5 4 8 8 6 6 7 5 4 4
-2 -2 -2 8 14 6 3 2 2 2 2 1 2 3 3 7 10 11 10 8 10 10 8 6 6 7 9 9 8 8 7 8 6 7 8 9 8 6 6 6 7 8 8
4 3 10 15 11 5 6 7 7 6 6 7 7 1 4 10 9 6 10 13 12 11 11 8 6 6 7 8 9 8 9 8 8 7 8 8 7 7 3 -3 6 8 7
-1 9 13 8 4 0 -1 -2 8 11 11 7 6 2 11 12 8 10 10 10 11 14 11 10 8 7 6 6 8 8 9 9 9 8 8 10 13 12 10 13 11 12 15
2 16 13 4 7 3 1 -2 16 18 20 15 12 13 12 8 11 6 9 9 9 11 15 12 11 8 7 7 7 7 8 9 9 9 9 9 10 11 11 12 12 12 11
26 11 5 6 1 1 -14 4 16 11 12 14 14 13 14 11 10 12 12 10 9 9 13 13 13 10 8 7 7 7 7 8 9 9 9 10 10 9 9 9 10 11 11
7 13 12 3 5 -4 -7 12 15 11 12 11 11 11 13 13 11 11 13 13 11 9 11 12 13 10 8 7 7 7 7 7 7 9 9 9 10 10 10 9 10 10 10
5 4 0 -1 -5 2 6 21 11 12 12 11 11 10 9 10 10 12 12 13 14 10 7 10 11 12 11 8 8 7 8 8 7 7 8 9 10 10 10 10 10 10 10
1 -2 -1 5 21 24 18 12 13 14 13 11 11 12 12 12 14 14 14 13 11 17 12 7 8 10 11 11 10 9 9 8 8 9 8 8 8 9 9 10 9 8 8
1 11 25 13 5 6 11 15 16 14 12 11 11 12 11 12 11 12 13 14 14 13 14 16 9 7 9 11 12 11 10 11 10 10 9 9 10 10 10 10 10 10 9
12 13 7 10 12 15 16 16 13 13 13 11 11 12 13 14 15 15 14 12 13 17 16 15 15 11 10 8 9 10 12 11 11 10 11 10 10 10 10 10 10 9 10
10 13 13 12 14 13 13 13 11 10 11 9 9 9 10 11 12 15 18 20 17 15 17 20 18 15 11 11 9 9 12 12 11 10 11 11 10 10 11 11 10 10 10
15 11 15 17 17 15 15 14 11 9 8 8 10 13 15 16 17 18 16 12 15 20 18 17 22 21 18 12 12 7 8 5 11 11 11 11 11 10 10 11 10 10 7
11 13 14 14 13 10 11 9 8 7 8 9 11 11 9 4 3 7 5 15 19 9 9 14 16 20 18 16 9 7 16 24 6 7 8 10 10 10 11 9 10 4 10
19 20 14 13 10 6 1 4 9 10 7 6 5 5 3 3 1 3 2 8 4 13 13 14 14 13 17 16 16 22 15 24 25 11 7 7 7 8 8 15 4 11 10
20 9 12 11 8 4 8 14 8 8 1 1 6 4 4 6 4 3 8 6 8 12 4 2 16 21 12 12 17 13 10 16 31 14 19 10 7 7 13 3 4 9 2
12 13 10 8 13 24 26 19 17 16 24 20 17 12 12 11 9 3 1 1 3 8 13 5 4 8 17 19 13 22 17 8 12 21 17 12 14 9 3 -3 7 11 16
13 12 16 17 12 4 -1 -3 2 4 7 8 7 5 6 3 2 5 7 6 8 4 3 1 8 4 3 9 18 19 16 14 13 9 14 21 22 12 8 16 16 6 18
Height
3133 3133 3133 3133 3132 3131 3130 3128 3125 3123 3121 3119 3116 3114 3110 3107 3104 3101 3098 3094 3090 3086 3081 3075 3069 3062 3055 3049 3042 3036 3031 3028 3026 3024 3027 3030 3034 3040 3051 3056 3062 3066 3068
3132 3132 3132 3132 3131 3129 3127 3125 3122 3120 3118 3115 3113 3110 3108 3104 3101 3097 3094 3091 3086 3081 3076 3071 3065 3059 3053 3047 3039 3033 3028 3025 3023 3022 3024 3028 3032 3036 3043 3048 3055 3060 3063
3131 3132 3131 3130 3129 3127 3124 3122 3119 3116 3114 3112 3110 3107 3104 3101 3098 3094 3090 3086 3082 3078 3073 3068 3061 3056 3051 3045 3038 3032 3027 3024 3022 3022 3024 3026 3030 3035 3041 3047 3049 3054 3056
3129 3129 3129 3128 3126 3123 3121 3118 3115 3113 3111 3109 3107 3104 3101 3098 3094 3092 3088 3083 3079 3074 3070 3065 3059 3053 3049 3044 3039 3032 3028 3026 3024 3024 3024 3027 3030 3035 3040 3044 3047 3052 3052
3127 3127 3126 3125 3123 3120 3117 3114 3112 3110 3109 3106 3103 3100 3098 3094 3091 3088 3084 3079 3075 3071 3067 3062 3057 3051 3047 3043 3039 3034 3030 3027 3026 3025 3025 3027 3030 3035 3038 3042 3046 3047 3048
3125 3125 3124 3123 3120 3116 3114 3112 3109 3107 3105 3103 3100 3097 3094 3091 3087 3083 3079 3075 3071 3067 3063 3059 3055 3050 3046 3042 3039 3036 3031 3029 3028 3027 3028 3029 3030 3032 3035 3037 3040 3042 3043
3123 3123 3121 3119 3115 3112 3110 3108 3106 3103 3101 3098 3095 3093 3090 3086 3082 3077 3074 3070 3067 3064 3060 3056 3052 3049 3044 3041 3037 3034 3032 3029 3028 3028 3028 3029 3029 3030 3032 3033 3035 3036 3038
3120 3119 3117 3115 3112 3109 3107 3104 3101 3099 3097 3094 3091 3088 3084 3081 3076 3072 3069 3065 3061 3058 3055 3052 3049 3046 3043 3040 3037 3033 3031 3028 3026 3026 3026 3027 3028 3027 3028 3029 3030 3031 3032
3117 3116 3114 3112 3109 3106 3103 3100 3097 3095 3092 3089 3086 3082 3078 3074 3071 3066 3062 3059 3055 3053 3050 3047 3046 3043 3040 3038 3035 3033 3030 3028 3026 3025 3024 3025 3025 3025 3025 3025 3026 3027 3027
3114 3113 3111 3109 3106 3102 3099 3096 3093 3090 3087 3083 3079 3076 3072 3068 3064 3060 3056 3052 3048 3046 3044 3042 3040 3038 3037 3035 3033 3031 3029 3027 3025 3023 3022 3021 3020 3020 3021 3021 3021 3021 3021
3111 3109 3107 3104 3100 3098 3095 3093 3088 3084 3080 3077 3073 3069 3065 3060 3056 3052 3048 3045 3042 3039 3037 3035 3033 3031 3030 3029 3027 3026 3024 3022 3022 3021 3019 3018 3017 3016 3014 3015 3015 3014 3014
3106 3104 3101 3098 3096 3094 3091 3087 3082 3077 3072 3069 3065 3061 3057 3052 3048 3044 3040 3036 3034 3032 3029 3027 3026 3025 3023 3022 3021 3019 3018 3017 3015 3013 3013 3012 3011 3010 3009 3007 3006 3006 3005
3100 3098 3096 3093 3090 3087 3084 3080 3074 3068 3064 3060 3055 3051 3047 3042 3038 3034 3031 3028 3025 3023 3021 3018 3018 3017 3016 3015 3013 3012 3010 3009 3008 3007 3006 3004 3003 3002 3001 3001 3000 2998 2997
3094 3092 3089 3087 3084 3081 3076 3071 3066 3060 3055 3051 3046 3042 3038 3033 3029 3026 3022 3019 3017 3015 3013 3010 3009 3008 3007 3006 3005 3003 3002 3001 3000 2999 2997 2996 2996 2995 2994 2993 2992 2991 2991
3090 3087 3084 3080 3076 3072 3068 3062 3057 3052 3047 3043 3038 3033 3029 3025 3021 3017 3014 3010 3008 3006 3004 3002 3000 2998 2997 2997 2995 2994 2992 2992 2991 2990 2989 2989 2987 2986 2985 2985 2985 2984 2984
3084 3081 3078 3074 3067 3061 3057 3053 3048 3043 3038 3034 3029 3024 3020 3017 3012 3008 3004 3001 2998 2996 2994 2993 2991 2990 2989 2988 2986 2985 2984 2983 2982 2981 2980 2979 2978 2977 2976 2976 2975 2976 2976
3076 3072 3069 3065 3058 3052 3049 3046 3040 3034 3030 3025 3020 3015 3010 3007 3003 3000 2996 2992 2989 2986 2984 2983 2981 2981 2980 2978 2977 2976 2975 2974 2973 2973 2972 2971 2970 2969 2968 2967 2967 2966 2966
3066 3062 3058 3054 3049 3043 3039 3035 3031 3027 3022 3018 3013 3008 3003 2999 2995 2991 2986 2983 2979 2976 2974 2973 2971 2970 2971 2969 2967 2966 2964 2963 2963 2963 2963 2962 2961 2960 2959 2958 2958 2958 2957
3058 3052 3048 3042 3037 3033 3030 3026 3023 3018 3014 3010 3006 3001 2995 2991 2987 2983 2978 2973 2969 2966 2964 2962 2960 2959 2959 2957 2956 2954 2954 2953 2953 2953 2952 2952 2952 2952 2952 2951 2950 2950 2950
3049 3043 3040 3035 3029 3025 3022 3018 3015 3011 3007 3002 2998 2993 2988 2983 2979 2974 2970 2966 2961 2958 2954 2952 2950 2949 2949 2948 2945 2943 2943 2943 2943 2942 2942 2942 2942 2941 2942 2941 2941 2940 2940
3040 3035 3030 3026 3021 3017 3014 3011 3008 3004 3000 2996 2992 2988 2983 2978 2973 2969 2963 2959 2955 2950 2946 2942 2940 2938 2937 2937 2934 2933 2931 2931 2930 2931 2931 2931 2930 2930 2931 2931 2931 2930 2929
3032 3025 3021 3019 3015 3010 3006 3004 3000 2996 2993 2989 2985 2981 2977 2972 2967 2963 2958 2953 2947 2943 2939 2935 2932 2930 2928 2926 2924 2921 2919 2918 2917 2918 2918 2920 2919 2920 2920 2920 2921 2920 2920
3021 3016 3013 3011 3009 3004 2999 2996 2993 2989 2986 2982 2978 2974 2971 2966 2962 2956 2952 2948 2942 2937 2933 2928 2925 2922 2919 2916 2913 2911 2909 2906 2904 2905 2904 2906 2908 2909 2910 2910 2909 2909 2910
3011 3006 3004 3002 3000 2998 2994 2989 2984 2980 2977 2974 2971 2967 2962 2958 2955 2951 2946 2941 2936 2931 2926 2922 2917 2913 2910 2907 2904 2901 2899 2897 2895 2895 2894 2893 2894 2897 2899 2898 2897 2897 2898
3002 2998 2995 2993 2991 2988 2985 2982 2977 2972 2968 2964 2961 2957 2952 2948 2945 2941 2937 2933 2930 2923 2919 2915 2910 2904 2901 2897 2894 2891 2887 2886 2885 2883 2883 2881 2882 2883 2885 2886 2885 2888 2888
2993 2990 2987 2984 2983 2979 2976 2973 2969 2964 2960 2956 2952 2947 2943 2939 2934 2929 2926 2925 2920 2916 2912 2907 2901 2898 2892 2888 2883 2881 2877 2875 2874 2871 2870 2870 2871 2871 2872 2874 2877 2877 2878